| time (UTC) | temp F | wind direction | speed MPH | gust MPH | rain 1hr in | rain 24hr in | rain mn in | humidity % | barometer mb |
| 20260903220301 | 83 | 230 | 0.0 | 0.0 | 0.00 | 0.25 | 0.25 | 95 | 1011.8 |
| 20260903215759 | 83 | 211 | 0.0 | 0.0 | 0.00 | 0.25 | 0.25 | 94 | 1011.9 |
| 20260903215256 | 83 | 242 | 0.0 | 0.0 | 0.00 | 0.25 | 0.25 | 94 | 1011.7 |
| 20260903214753 | 83 | 277 | 0.0 | 0.0 | 0.00 | 0.25 | 0.25 | 93 | 1011.9 |
| 20260903214250 | 84 | 159 | 0.0 | 0.0 | 0.00 | 0.25 | 0.25 | 93 | 1011.5 |
| 20260903213744 | 85 | 125 | 0.0 | 0.0 | 0.00 | 0.25 | 0.25 | 91 | 1011.3 |
| 20260903213240 | 85 | 140 | 0.0 | 0.0 | 0.00 | 0.25 | 0.25 | 89 | 1011.5 |
| 20260903212736 | 85 | 130 | 0.0 | 0.0 | 0.00 | 0.25 | 0.25 | 88 | 1011.4 |
| 20260903212232 | 84 | 151 | 0.0 | 0.0 | 0.00 | 0.25 | 0.25 | 90 | 1011.3 |
| 20260903211725 | 84 | 200 | 0.0 | 0.0 | 0.00 | 0.25 | 0.25 | 92 | 1011.1 |
| 20260903211222 | 84 | 179 | 0.0 | 0.0 | 0.00 | 0.25 | 0.25 | 93 | 1010.8 |
| 20260903210718 | 84 | 113 | 0.0 | 0.0 | 0.00 | 0.25 | 0.25 | 92 | 1011.0 |
| 20260903210213 | 83 | 45 | 0.0 | 0.0 | 0.00 | 0.25 | 0.25 | 92 | 1011.2 |
| 20260903205713 | 83 | 167 | 0.0 | 0.0 | 0.00 | 0.25 | 0.25 | 95 | 1011.3 |
| 20260903205212 | 83 | 209 | 0.0 | 0.0 | 0.00 | 0.25 | 0.25 | 97 | 1011.2 |
| 20260903204707 | 83 | 68 | 0.0 | 0.0 | 0.00 | 0.25 | 0.25 | 97 | 1011.4 |
| 20260903204204 | 83 | 151 | 0.0 | 0.0 | 0.00 | 0.25 | 0.25 | 97 | 1011.6 |
| 20260903203659 | 83 | 170 | 0.0 | 0.0 | 0.00 | 0.25 | 0.25 | 97 | 1011.8 |
| 20260903203154 | 83 | 152 | 0.0 | 0.0 | 0.00 | 0.25 | 0.25 | 97 | 1011.7 |
| 20260903202648 | 84 | 89 | 0.0 | 0.0 | 0.00 | 0.25 | 0.25 | 97 | 1011.7 |
| 20260903202145 | 83 | 177 | 0.0 | 0.0 | 0.05 | 0.25 | 0.25 | 97 | 1011.8 |
| 20260903201644 | 84 | 102 | 0.0 | 0.0 | 0.40 | 0.25 | 0.25 | 96 | 1011.9 |
| 20260903201144 | 85 | 185 | 0.0 | 0.0 | 1.25 | 0.24 | 0.24 | 96 | 1011.9 |
| 20260903200638 | 83 | 63 | 0.0 | 0.0 | 1.09 | 0.19 | 0.19 | 93 | 1011.9 |
| 20260903200134 | 84 | 137 | 0.0 | 0.0 | 0.31 | 0.06 | 0.06 | 90 | 1012.0 |
| 20260903195630 | 86 | 128 | 0.0 | 0.0 | 0.00 | 0.01 | 0.01 | 88 | 1011.9 |
| 20260903195125 | 87 | 152 | 0.0 | 0.0 | 0.00 | 0.01 | 0.01 | 88 | 1012.0 |
| 20260903194621 | 87 | 145 | 0.0 | 0.0 | 0.00 | 0.01 | 0.01 | 85 | 1012.0 |
| 20260903194120 | 88 | 326 | 0.0 | 0.0 | 0.00 | 0.01 | 0.01 | 85 | 1012.3 |
| 20260903193616 | 88 | 180 | 0.0 | 0.0 | 0.00 | 0.01 | 0.01 | 85 | 1012.3 |
| 20260903193112 | 88 | 67 | 0.0 | 0.0 | 0.00 | 0.01 | 0.01 | 83 | 1012.1 |
| 20260903192608 | 88 | 165 | 0.0 | 0.0 | 0.00 | 0.01 | 0.01 | 82 | 1012.3 |
| 20260903192103 | 88 | 168 | 0.0 | 0.0 | 0.00 | 0.01 | 0.01 | 83 | 1012.4 |
| 20260903191559 | 88 | 132 | 0.0 | 0.0 | 0.00 | 0.01 | 0.01 | 83 | 1012.4 |
| 20260903191054 | 88 | 188 | 0.0 | 0.0 | 0.00 | 0.01 | 0.01 | 83 | 1012.5 |
| 20260903190554 | 88 | 176 | 0.0 | 0.0 | 0.00 | 0.01 | 0.01 | 82 | 1012.4 |
| 20260903190053 | 88 | 154 | 0.0 | 0.0 | 0.00 | 0.01 | 0.01 | 80 | 1012.1 |
| 20260903185548 | 89 | 156 | 0.0 | 0.0 | 0.00 | 0.01 | 0.01 | 80 | 1012.4 |
| 20260903185044 | 90 | 135 | 0.0 | 0.0 | 0.00 | 0.01 | 0.01 | 78 | 1012.5 |
| 20260903184540 | 91 | 23 | 0.0 | 0.0 | 0.00 | 0.01 | 0.01 | 77 | 1012.3 |
| 20260903184035 | 91 | 176 | 0.0 | 0.0 | 0.00 | 0.01 | 0.01 | 77 | 1012.6 |
| 20260903183534 | 90 | 165 | 0.0 | 0.0 | 0.00 | 0.01 | 0.01 | 80 | 1012.5 |
| 20260903183029 | 89 | 104 | 0.0 | 0.0 | 0.00 | 0.01 | 0.01 | 79 | 1012.6 |
| 20260903182528 | 91 | 79 | 0.0 | 1.0 | 0.00 | 0.01 | 0.01 | 78 | 1012.5 |
| 20260903182025 | 92 | 139 | 0.0 | 0.0 | 0.00 | 0.01 | 0.01 | 70 | 1012.4 |
| 20260903181517 | 93 | 152 | 0.0 | 0.0 | 0.00 | 0.01 | 0.01 | 70 | 1012.5 |
| 20260903181017 | 93 | 107 | 0.0 | 0.0 | 0.00 | 0.01 | 0.01 | 71 | 1012.6 |
| 20260903180513 | 91 | 127 | 0.0 | 0.0 | 0.00 | 0.01 | 0.01 | 73 | 1012.8 |
| 20260903180012 | 90 | 152 | 0.0 | 1.0 | 0.00 | 0.01 | 0.01 | 77 | 1013.0 |
| 20260903175511 | 90 | 350 | 0.0 | 0.0 | 0.00 | 0.01 | 0.01 | 80 | 1013.0 |
| 20260903175011 | 89 | 235 | 0.0 | 0.0 | 0.00 | 0.01 | 0.01 | 80 | 1012.9 |
| 20260903174506 | 89 | 166 | 0.0 | 0.0 | 0.00 | 0.01 | 0.01 | 80 | 1013.0 |
| 20260903174001 | 90 | 133 | 0.0 | 0.0 | 0.00 | 0.01 | 0.01 | 78 | 1013.2 |
| 20260903173455 | 90 | 176 | 0.0 | 0.0 | 0.00 | 0.01 | 0.01 | 79 | 1013.4 |
| 20260903172951 | 91 | 253 | 0.0 | 0.0 | 0.00 | 0.01 | 0.01 | 78 | 1013.3 |
| 20260903172446 | 89 | 20 | 0.0 | 1.0 | 0.00 | 0.01 | 0.01 | 82 | 1013.5 |
| 20260903171941 | 88 | 227 | 0.0 | 0.0 | 0.00 | 0.01 | 0.01 | 83 | 1013.8 |
| 20260903171436 | 88 | 145 | 0.0 | 0.0 | 0.00 | 0.01 | 0.01 | 82 | 1013.7 |
| 20260903170937 | 88 | 174 | 0.0 | 0.0 | 0.00 | 0.01 | 0.01 | 82 | 1013.7 |
| 20260903170431 | 87 | 36 | 0.0 | 0.0 | 0.00 | 0.01 | 0.01 | 83 | 1013.4 |
| 20260903165930 | 88 | 161 | 0.0 | 0.0 | 0.00 | 0.01 | 0.01 | 82 | 1013.4 |
| 20260903165425 | 88 | 148 | 0.0 | 0.0 | 0.00 | 0.01 | 0.01 | 81 | 1013.6 |
| 20260903164924 | 88 | 152 | 0.0 | 0.0 | 0.00 | 0.01 | 0.01 | 83 | 1013.8 |
| 20260903164419 | 88 | 171 | 0.0 | 0.0 | 0.00 | 0.01 | 0.01 | 83 | 1013.9 |
| 20260903163914 | 87 | 151 | 0.0 | 0.0 | 0.00 | 0.01 | 0.01 | 83 | 1014.0 |
| 20260903163410 | 87 | 145 | 0.0 | 0.0 | 0.00 | 0.01 | 0.01 | 83 | 1013.7 |
| 20260903162906 | 88 | 145 | 0.0 | 0.0 | 0.00 | 0.01 | 0.01 | 83 | 1013.9 |
| 20260903162402 | 87 | 150 | 0.0 | 0.0 | 0.00 | 0.01 | 0.01 | 84 | 1013.8 |
| 20260903161857 | 87 | 165 | 0.0 | 0.0 | 0.00 | 0.01 | 0.01 | 84 | 1013.9 |
| 20260903161352 | 87 | 157 | 0.0 | 0.0 | 0.00 | 0.01 | 0.01 | 83 | 1014.0 |
| 20260903160848 | 87 | 115 | 0.0 | 0.0 | 0.00 | 0.01 | 0.01 | 84 | 1013.9 |
| 20260903160347 | 87 | 152 | 0.0 | 0.0 | 0.00 | 0.01 | 0.01 | 85 | 1014.1 |
| 20260903155846 | 86 | 181 | 0.0 | 0.0 | 0.00 | 0.01 | 0.01 | 85 | 1013.9 |
| 20260903155341 | 86 | 144 | 0.0 | 0.0 | 0.00 | 0.01 | 0.01 | 85 | 1014.0 |
| 20260903154837 | 86 | 161 | 0.0 | 0.0 | 0.00 | 0.01 | 0.01 | 85 | 1014.1 |
| 20260903154333 | 86 | 156 | 0.0 | 0.0 | 0.00 | 0.01 | 0.01 | 85 | 1014.5 |
| 20260903153827 | 86 | 165 | 0.0 | 0.0 | 0.00 | 0.01 | 0.01 | 87 | 1014.4 |
| 20260903153323 | 86 | 159 | 0.0 | 0.0 | 0.00 | 0.01 | 0.01 | 88 | 1014.4 |
| 20260903152820 | 85 | 204 | 0.0 | 0.0 | 0.00 | 0.01 | 0.01 | 88 | 1014.4 |
| 20260903152315 | 85 | 75 | 0.0 | 0.0 | 0.00 | 0.01 | 0.01 | 88 | 1014.0 |
| 20260903151810 | 85 | 169 | 0.0 | 0.0 | 0.00 | 0.01 | 0.01 | 89 | 1014.3 |
| 20260903151306 | 85 | 155 | 0.0 | 0.0 | 0.00 | 0.01 | 0.01 | 89 | 1014.3 |
| 20260903150806 | 85 | 21 | 0.0 | 0.0 | 0.00 | 0.01 | 0.01 | 89 | 1014.3 |
| 20260903150300 | 85 | 146 | 0.0 | 0.0 | 0.00 | 0.01 | 0.01 | 89 | 1014.3 |
| 20260903145755 | 85 | 100 | 0.0 | 0.0 | 0.00 | 0.01 | 0.01 | 89 | 1014.1 |
| 20260903145250 | 85 | 128 | 0.0 | 0.0 | 0.00 | 0.01 | 0.01 | 89 | 1014.2 |
| 20260903144749 | 84 | 181 | 0.0 | 0.0 | 0.00 | 0.01 | 0.01 | 92 | 1014.3 |
| 20260903144245 | 83 | 164 | 0.0 | 0.0 | 0.00 | 0.01 | 0.01 | 93 | 1014.3 |
| 20260903143740 | 82 | 165 | 0.0 | 0.0 | 0.00 | 0.01 | 0.01 | 94 | 1014.2 |
| 20260903143237 | 82 | 116 | 0.0 | 0.0 | 0.00 | 0.01 | 0.01 | 95 | 1014.0 |
| 20260903142732 | 82 | 170 | 0.0 | 0.0 | 0.00 | 0.01 | 0.01 | 95 | 1014.2 |
| 20260903142228 | 82 | 156 | 0.0 | 0.0 | 0.00 | 0.01 | 0.01 | 94 | 1014.1 |
| 20260903141724 | 82 | 133 | 0.0 | 0.0 | 0.00 | 0.01 | 0.01 | 94 | 1014.2 |
| 20260903141219 | 83 | 149 | 0.0 | 0.0 | 0.00 | 0.01 | 0.01 | 95 | 1014.2 |
| 20260903140714 | 82 | 82 | 0.0 | 0.0 | 0.00 | 0.01 | 0.01 | 95 | 1014.4 |
| 20260903140209 | 82 | 150 | 0.0 | 0.0 | 0.00 | 0.01 | 0.01 | 96 | 1014.3 |
| 20260903135705 | 82 | 150 | 0.0 | 0.0 | 0.00 | 0.01 | 0.01 | 97 | 1014.1 |
| 20260903135200 | 82 | 156 | 0.0 | 0.0 | 0.00 | 0.01 | 0.01 | 99 | 1014.1 |
| 20260903134659 | 81 | 140 | 0.0 | 0.0 | 0.00 | 0.01 | 0.01 | 99 | 1014.1 |
| 20260903134155 | 80 | 133 | 0.0 | 0.0 | 0.00 | 0.01 | 0.01 | 99 | 1014.1 |
| 20260903133652 | 80 | 159 | 0.0 | 0.0 | 0.00 | 0.01 | 0.01 | 99 | 1014.0 |
| 20260903133148 | 80 | 174 | 0.0 | 0.0 | 0.00 | 0.01 | 0.01 | 99 | 1013.9 |
| 20260903132649 | 79 | 165 | 0.0 | 0.0 | 0.00 | 0.01 | 0.01 | 99 | 1014.2 |
| 20260903132148 | 79 | 114 | 0.0 | 0.0 | 0.00 | 0.01 | 0.01 | 99 | 1014.1 |
| 20260903131643 | 79 | 156 | 0.0 | 0.0 | 0.00 | 0.01 | 0.01 | 99 | 1014.3 |
| 20260903131142 | 79 | 163 | 0.0 | 0.0 | 0.00 | 0.01 | 0.01 | 99 | 1013.9 |
| 20260903130638 | 79 | 153 | 0.0 | 0.0 | 0.00 | 0.01 | 0.01 | 99 | 1013.9 |
| 20260903130132 | 79 | 130 | 0.0 | 0.0 | 0.00 | 0.01 | 0.01 | 99 | 1014.1 |
| 20260903125630 | 78 | 160 | 0.0 | 0.0 | 0.00 | 0.01 | 0.01 | 99 | 1014.1 |
| 20260903125125 | 79 | 148 | 0.0 | 0.0 | 0.00 | 0.01 | 0.01 | 99 | 1013.9 |
| 20260903124620 | 78 | 162 | 0.0 | 0.0 | 0.00 | 0.01 | 0.01 | 99 | 1014.0 |
| 20260903124119 | 78 | 156 | 0.0 | 0.0 | 0.00 | 0.01 | 0.01 | 99 | 1014.0 |
| 20260903123614 | 78 | 164 | 0.0 | 0.0 | 0.00 | 0.01 | 0.01 | 99 | 1014.0 |
| 20260903123112 | 78 | 166 | 0.0 | 0.0 | 0.00 | 0.01 | 0.01 | 99 | 1014.0 |
| 20260903122607 | 78 | 163 | 0.0 | 0.0 | 0.00 | 0.01 | 0.01 | 99 | 1014.0 |
| 20260903122107 | 78 | 158 | 0.0 | 0.0 | 0.00 | 0.01 | 0.01 | 99 | 1013.8 |
| 20260903121601 | 78 | 131 | 0.0 | 0.0 | 0.00 | 0.01 | 0.01 | 99 | 1014.0 |
| 20260903121057 | 78 | 148 | 0.0 | 0.0 | 0.00 | 0.01 | 0.01 | 99 | 1013.8 |
| 20260903120555 | 78 | 164 | 0.0 | 0.0 | 0.00 | 0.01 | 0.01 | 99 | 1013.6 |
| 20260903120050 | 78 | 163 | 0.0 | 0.0 | 0.00 | 0.01 | 0.01 | 99 | 1013.6 |
| 20260903115548 | 78 | 149 | 0.0 | 0.0 | 0.00 | 0.01 | 0.01 | 99 | 1013.4 |
| 20260903115044 | 78 | 54 | 0.0 | 0.0 | 0.00 | 0.01 | 0.01 | 99 | 1013.4 |
| 20260903114538 | 78 | 143 | 0.0 | 0.0 | 0.00 | 0.01 | 0.01 | 99 | 1013.5 |
| 20260903114035 | 78 | 176 | 0.0 | 0.0 | 0.00 | 0.01 | 0.01 | 99 | 1013.2 |
| 20260903113530 | 78 | 177 | 0.0 | 0.0 | 0.00 | 0.01 | 0.01 | 99 | 1013.1 |
| 20260903113026 | 78 | 177 | 0.0 | 0.0 | 0.00 | 0.01 | 0.01 | 99 | 1013.1 |
| 20260903112521 | 78 | 169 | 0.0 | 0.0 | 0.00 | 0.01 | 0.01 | 99 | 1013.0 |
| 20260903112022 | 78 | 176 | 0.0 | 0.0 | 0.00 | 0.01 | 0.01 | 99 | 1012.9 |
| 20260903111520 | 78 | 184 | 0.0 | 0.0 | 0.00 | 0.01 | 0.01 | 99 | 1012.7 |
| 20260903111017 | 78 | 176 | 0.0 | 0.0 | 0.00 | 0.01 | 0.01 | 99 | 1012.9 |
| 20260903110513 | 78 | 152 | 0.0 | 0.0 | 0.00 | 0.01 | 0.01 | 99 | 1012.5 |
| 20260903110007 | 78 | 179 | 0.0 | 0.0 | 0.00 | 0.01 | 0.01 | 99 | 1012.7 |
| 20260903105502 | 78 | 169 | 0.0 | 0.0 | 0.00 | 0.01 | 0.01 | 99 | 1012.6 |
| 20260903104956 | 78 | 169 | 0.0 | 0.0 | 0.00 | 0.01 | 0.01 | 99 | 1012.8 |
| 20260903104455 | 78 | 176 | 0.0 | 0.0 | 0.00 | 0.01 | 0.01 | 99 | 1012.4 |
| 20260903103952 | 78 | 176 | 0.0 | 0.0 | 0.00 | 0.01 | 0.01 | 99 | 1012.5 |
| 20260903103448 | 78 | 169 | 0.0 | 0.0 | 0.00 | 0.01 | 0.01 | 99 | 1012.3 |
| 20260903102943 | 78 | 168 | 0.0 | 0.0 | 0.00 | 0.01 | 0.01 | 99 | 1012.5 |
| 20260903102439 | 78 | 29 | 0.0 | 0.0 | 0.00 | 0.01 | 0.01 | 99 | 1012.5 |
| 20260903101937 | 78 | 169 | 0.0 | 0.0 | 0.00 | 0.01 | 0.01 | 99 | 1012.5 |
| 20260903101432 | 78 | 108 | 0.0 | 0.0 | 0.00 | 0.01 | 0.01 | 99 | 1012.4 |
| 20260903100928 | 78 | 101 | 0.0 | 0.0 | 0.00 | 0.01 | 0.01 | 99 | 1012.0 |
| 20260903100423 | 78 | 147 | 0.0 | 0.0 | 0.00 | 0.01 | 0.01 | 99 | 1012.4 |
| 20260903095920 | 78 | 176 | 0.0 | 0.0 | 0.00 | 0.01 | 0.01 | 99 | 1012.1 |
| 20260903095415 | 78 | 169 | 0.0 | 0.0 | 0.00 | 0.01 | 0.01 | 99 | 1012.4 |
| 20260903094910 | 78 | 169 | 0.0 | 0.0 | 0.00 | 0.01 | 0.01 | 99 | 1012.3 |
| 20260903094409 | 78 | 176 | 0.0 | 0.0 | 0.00 | 0.01 | 0.01 | 99 | 1012.0 |
| 20260903093906 | 78 | 150 | 0.0 | 0.0 | 0.00 | 0.01 | 0.01 | 99 | 1012.1 |
| 20260903093400 | 78 | 112 | 0.0 | 0.0 | 0.00 | 0.01 | 0.01 | 99 | 1011.9 |
| 20260903092856 | 78 | 176 | 0.0 | 0.0 | 0.00 | 0.01 | 0.01 | 99 | 1011.9 |
| 20260903092355 | 78 | 170 | 0.0 | 0.0 | 0.00 | 0.01 | 0.01 | 99 | 1012.0 |
| 20260903091854 | 78 | 176 | 0.0 | 0.0 | 0.00 | 0.01 | 0.01 | 99 | 1012.1 |
| 20260903091353 | 78 | 113 | 0.0 | 0.0 | 0.00 | 0.01 | 0.01 | 99 | 1012.1 |
| 20260903090849 | 78 | 63 | 0.0 | 0.0 | 0.00 | 0.01 | 0.01 | 99 | 1012.0 |
| 20260903090344 | 78 | 172 | 0.0 | 0.0 | 0.00 | 0.01 | 0.01 | 99 | 1011.7 |
| 20260903085842 | 78 | 150 | 0.0 | 0.0 | 0.00 | 0.01 | 0.01 | 99 | 1011.6 |
| 20260903085336 | 77 | 168 | 0.0 | 0.0 | 0.00 | 0.01 | 0.01 | 99 | 1011.7 |
| 20260903084835 | 77 | 116 | 0.0 | 0.0 | 0.00 | 0.01 | 0.01 | 99 | 1011.7 |
| 20260903084334 | 78 | 161 | 0.0 | 0.0 | 0.00 | 0.01 | 0.01 | 99 | 1011.6 |
| 20260903083830 | 78 | 176 | 0.0 | 0.0 | 0.00 | 0.01 | 0.01 | 99 | 1011.6 |
| 20260903083325 | 78 | 161 | 0.0 | 0.0 | 0.00 | 0.01 | 0.01 | 99 | 1011.6 |
| 20260903082824 | 78 | 172 | 0.0 | 0.0 | 0.00 | 0.01 | 0.01 | 99 | 1011.6 |
| 20260903082319 | 78 | 169 | 0.0 | 0.0 | 0.00 | 0.01 | 0.01 | 99 | 1011.8 |
| 20260903081815 | 78 | 161 | 0.0 | 0.0 | 0.00 | 0.01 | 0.01 | 99 | 1011.9 |
| 20260903081310 | 78 | 169 | 0.0 | 0.0 | 0.00 | 0.01 | 0.01 | 99 | 1012.0 |
| 20260903080806 | 78 | 169 | 0.0 | 0.0 | 0.00 | 0.01 | 0.01 | 99 | 1012.0 |
| 20260903080303 | 78 | 169 | 0.0 | 0.0 | 0.00 | 0.01 | 0.01 | 99 | 1012.0 |
| 20260903075757 | 78 | 165 | 0.0 | 0.0 | 0.00 | 0.01 | 0.01 | 99 | 1012.0 |
| 20260903075252 | 78 | 115 | 0.0 | 0.0 | 0.00 | 0.01 | 0.01 | 99 | 1012.0 |
| 20260903074751 | 78 | 169 | 0.0 | 0.0 | 0.00 | 0.01 | 0.01 | 99 | 1012.1 |
| 20260903074246 | 78 | 129 | 0.0 | 0.0 | 0.00 | 0.01 | 0.01 | 99 | 1012.3 |
| 20260903073742 | 78 | 140 | 0.0 | 0.0 | 0.05 | 0.01 | 0.01 | 99 | 1012.1 |
| 20260903073237 | 78 | 176 | 0.0 | 0.0 | 0.05 | 0.01 | 0.01 | 99 | 1012.3 |
| 20260903072733 | 78 | 165 | 0.0 | 0.0 | 0.05 | 0.01 | 0.01 | 99 | 1012.4 |
| 20260903072229 | 78 | 176 | 0.0 | 0.0 | 0.00 | 0.00 | 0.00 | 99 | 1012.4 |
| 20260903071726 | 78 | 172 | 0.0 | 0.0 | 0.00 | 0.00 | 0.00 | 99 | 1012.3 |
| 20260903071221 | 78 | 139 | 0.0 | 0.0 | 0.00 | 0.00 | 0.00 | 99 | 1012.5 |
| 20260903070720 | 78 | 172 | 0.0 | 0.0 | 0.00 | 0.00 | 0.00 | 99 | 1012.6 |
| 20260903070216 | 78 | 169 | 0.0 | 0.0 | 0.00 | 0.00 | 0.00 | 99 | 1012.7 |
| 20260903065711 | 78 | 161 | 0.0 | 0.0 | 0.00 | 0.00 | 0.00 | 99 | 1012.6 |
| 20260903065205 | 78 | 172 | 0.0 | 0.0 | 0.00 | 0.00 | 0.00 | 99 | 1012.8 |
| 20260903064704 | 78 | 165 | 0.0 | 0.0 | 0.00 | 0.00 | 0.00 | 99 | 1012.7 |
| 20260903064200 | 78 | 148 | 0.0 | 0.0 | 0.00 | 0.00 | 0.00 | 99 | 1012.6 |
| 20260903063656 | 78 | 169 | 0.0 | 0.0 | 0.00 | 0.00 | 0.00 | 99 | 1012.6 |
| 20260903063155 | 78 | 150 | 0.0 | 0.0 | 0.00 | 0.00 | 0.00 | 99 | 1012.6 |
| 20260903062652 | 78 | 150 | 0.0 | 0.0 | 0.00 | 0.00 | 0.00 | 99 | 1012.7 |
| 20260903062146 | 78 | 134 | 0.0 | 0.0 | 0.00 | 0.00 | 0.00 | 99 | 1012.8 |
| 20260903061642 | 78 | 169 | 0.0 | 0.0 | 0.00 | 0.00 | 0.00 | 99 | 1012.6 |
| 20260903061141 | 78 | 169 | 0.0 | 0.0 | 0.00 | 0.00 | 0.00 | 99 | 1012.9 |
| 20260903060636 | 78 | 169 | 0.0 | 0.0 | 0.00 | 0.00 | 0.00 | 99 | 1012.8 |
| 20260903060132 | 78 | 176 | 0.0 | 0.0 | 0.00 | 0.00 | 0.00 | 99 | 1012.7 |
| 20260903055629 | 78 | 169 | 0.0 | 0.0 | 0.00 | 0.00 | 0.00 | 99 | 1013.0 |
| 20260903055127 | 78 | 169 | 0.0 | 0.0 | 0.00 | 0.00 | 0.00 | 99 | 1013.1 |
| 20260903054622 | 78 | 161 | 0.0 | 0.0 | 0.00 | 0.00 | 0.00 | 99 | 1012.9 |
| 20260903054118 | 78 | 162 | 0.0 | 0.0 | 0.00 | 0.00 | 0.00 | 99 | 1013.1 |
| 20260903053614 | 78 | 165 | 0.0 | 0.0 | 0.00 | 0.00 | 0.00 | 99 | 1013.1 |
| 20260903053109 | 78 | 172 | 0.0 | 0.0 | 0.00 | 0.00 | 0.00 | 99 | 1013.1 |
| 20260903052605 | 78 | 165 | 0.0 | 0.0 | 0.00 | 0.00 | 0.00 | 99 | 1013.3 |
| 20260903052101 | 78 | 151 | 0.0 | 0.0 | 0.00 | 0.00 | 0.00 | 99 | 1013.2 |
| 20260903051601 | 79 | 177 | 0.0 | 0.0 | 0.00 | 0.00 | 0.00 | 99 | 1013.6 |
| 20260903051056 | 79 | 156 | 0.0 | 0.0 | 0.00 | 0.00 | 0.00 | 99 | 1013.6 |
| 20260903050555 | 79 | 148 | 0.0 | 0.0 | 0.00 | 0.00 | 0.00 | 99 | 1013.5 |
| 20260903050051 | 79 | 169 | 0.0 | 0.0 | 0.00 | 0.00 | 0.00 | 99 | 1013.8 |
| 20260903045550 | 79 | 145 | 0.0 | 0.0 | 0.00 | 0.00 | 0.00 | 99 | 1013.5 |
| 20260903045047 | 79 | 165 | 0.0 | 0.0 | 0.00 | 0.00 | 0.00 | 99 | 1013.6 |
| 20260903044543 | 79 | 157 | 0.0 | 0.0 | 0.00 | 0.00 | 0.00 | 99 | 1013.6 |
| 20260903044038 | 79 | 161 | 0.0 | 0.0 | 0.00 | 0.00 | 0.00 | 99 | 1013.5 |
| 20260903043534 | 79 | 115 | 0.0 | 0.0 | 0.00 | 0.00 | 0.00 | 99 | 1013.5 |
| 20260903043033 | 79 | 163 | 0.0 | 0.0 | 0.00 | 0.00 | 0.00 | 99 | 1013.6 |
| 20260903042528 | 79 | 155 | 0.0 | 0.0 | 0.00 | 0.00 | 0.00 | 99 | 1013.6 |
| 20260903042023 | 79 | 162 | 0.0 | 0.0 | 0.00 | 0.00 | 0.00 | 99 | 1013.7 |
| 20260903041520 | 79 | 162 | 0.0 | 0.0 | 0.00 | 0.00 | 0.00 | 99 | 1013.5 |
| 20260903041015 | 79 | 151 | 0.0 | 0.0 | 0.00 | 0.00 | 0.00 | 99 | 1013.5 |
| 20260903040514 | 79 | 155 | 0.0 | 0.0 | 0.00 | 0.00 | 0.00 | 99 | 1013.8 |
| 20260903040011 | 79 | 158 | 0.0 | 0.0 | 0.00 | 0.14 | 0.14 | 99 | 1013.8 |
| 20260903035506 | 79 | 158 | 0.0 | 0.0 | 0.00 | 0.14 | 0.14 | 99 | 1013.8 |
| 20260903035001 | 79 | 136 | 0.0 | 0.0 | 0.00 | 0.14 | 0.14 | 99 | 1013.7 |
| 20260903034456 | 79 | 153 | 0.0 | 0.0 | 0.00 | 0.14 | 0.14 | 99 | 1014.0 |
| 20260903033956 | 79 | 159 | 0.0 | 0.0 | 0.00 | 0.14 | 0.14 | 99 | 1014.2 |
| 20260903033451 | 79 | 166 | 0.0 | 0.0 | 0.00 | 0.14 | 0.14 | 99 | 1013.9 |
| 20260903032946 | 79 | 157 | 0.0 | 0.0 | 0.00 | 0.14 | 0.14 | 99 | 1013.9 |
| 20260903032442 | 79 | 152 | 0.0 | 0.0 | 0.00 | 0.14 | 0.14 | 99 | 1013.7 |
| 20260903031937 | 79 | 159 | 0.0 | 0.0 | 0.00 | 0.14 | 0.14 | 99 | 1013.9 |
| 20260903031431 | 79 | 159 | 0.0 | 0.0 | 0.00 | 0.14 | 0.14 | 99 | 1013.8 |
| 20260903030926 | 79 | 157 | 0.0 | 0.0 | 0.00 | 0.14 | 0.14 | 99 | 1013.9 |
| 20260903030422 | 79 | 157 | 0.0 | 0.0 | 0.00 | 0.14 | 0.14 | 99 | 1013.9 |
| 20260903025918 | 79 | 159 | 0.0 | 0.0 | 0.00 | 0.14 | 0.14 | 99 | 1013.9 |
| 20260903025414 | 79 | 137 | 0.0 | 0.0 | 0.00 | 0.14 | 0.14 | 99 | 1013.9 |
| 20260903024908 | 79 | 152 | 0.0 | 0.0 | 0.00 | 0.14 | 0.14 | 99 | 1013.8 |
| 20260903024402 | 79 | 154 | 0.0 | 0.0 | 0.00 | 0.14 | 0.14 | 99 | 1013.8 |
| 20260903023857 | 79 | 146 | 0.0 | 0.0 | 0.00 | 0.14 | 0.14 | 99 | 1013.9 |
| 20260903023353 | 79 | 159 | 0.0 | 0.0 | 0.07 | 0.14 | 0.14 | 99 | 1014.0 |
| 20260903022848 | 79 | 166 | 0.0 | 0.0 | 0.07 | 0.14 | 0.14 | 99 | 1014.1 |
| 20260903022347 | 79 | 154 | 0.0 | 0.0 | 0.00 | 0.13 | 0.13 | 99 | 1014.1 |
| 20260903021846 | 79 | 159 | 0.0 | 0.0 | 0.00 | 0.13 | 0.13 | 99 | 1014.0 |
| 20260903021342 | 79 | 154 | 0.0 | 0.0 | 0.00 | 0.13 | 0.13 | 99 | 1014.0 |
| 20260903020841 | 79 | 142 | 0.0 | 0.0 | 0.05 | 0.13 | 0.13 | 99 | 1014.0 |
| 20260903020337 | 79 | 161 | 0.0 | 0.0 | 0.05 | 0.13 | 0.13 | 99 | 1014.1 |
| 20260903015831 | 79 | 142 | 0.0 | 0.0 | 0.00 | 0.12 | 0.12 | 99 | 1014.3 |
| 20260903015327 | 79 | 147 | 0.0 | 0.0 | 0.07 | 0.12 | 0.12 | 99 | 1014.0 |
| 20260903014822 | 79 | 132 | 0.0 | 0.0 | 0.07 | 0.12 | 0.12 | 99 | 1014.2 |
| 20260903014322 | 79 | 107 | 0.0 | 0.0 | 0.00 | 0.11 | 0.11 | 99 | 1014.1 |
| 20260903013817 | 79 | 152 | 0.0 | 0.0 | 0.05 | 0.11 | 0.11 | 99 | 1014.1 |
| 20260903013316 | 79 | 140 | 0.0 | 0.0 | 0.05 | 0.11 | 0.11 | 99 | 1014.0 |
| 20260903012815 | 79 | 119 | 0.0 | 0.0 | 0.05 | 0.11 | 0.11 | 99 | 1013.8 |
| 20260903012310 | 79 | 160 | 0.0 | 0.0 | 0.00 | 0.10 | 0.10 | 99 | 1013.7 |
| 20260903011809 | 79 | 146 | 0.0 | 0.0 | 0.00 | 0.10 | 0.10 | 99 | 1013.4 |
| 20260903011309 | 79 | 164 | 0.0 | 0.0 | 0.00 | 0.10 | 0.10 | 99 | 1013.4 |
| 20260903010804 | 79 | 149 | 0.0 | 0.0 | 0.07 | 0.10 | 0.10 | 99 | 1013.2 |
| 20260903010300 | 79 | 148 | 0.0 | 0.0 | 0.07 | 0.10 | 0.10 | 99 | 1013.0 |
| 20260903005758 | 79 | 150 | 0.0 | 0.0 | 0.00 | 0.09 | 0.09 | 99 | 1013.0 |
| 20260903005253 | 79 | 150 | 0.0 | 0.0 | 0.00 | 0.09 | 0.09 | 99 | 1012.9 |
| 20260903004749 | 79 | 129 | 0.0 | 0.0 | 0.05 | 0.09 | 0.09 | 99 | 1012.9 |
| 20260903004244 | 79 | 130 | 0.0 | 0.0 | 0.12 | 0.09 | 0.09 | 99 | 1012.9 |
| 20260903003740 | 80 | 60 | 0.0 | 0.0 | 0.07 | 0.08 | 0.08 | 99 | 1012.9 |
| 20260903003235 | 80 | 156 | 0.0 | 0.0 | 0.05 | 0.07 | 0.07 | 99 | 1013.0 |
| 20260903002729 | 80 | 151 | 0.0 | 0.0 | 0.05 | 0.07 | 0.07 | 99 | 1013.1 |
| 20260903002223 | 80 | 151 | 0.0 | 0.0 | 0.00 | 0.06 | 0.06 | 99 | 1013.5 |
| 20260903001719 | 80 | 151 | 0.0 | 0.0 | 0.00 | 0.06 | 0.06 | 99 | 1013.2 |
| 20260903001219 | 80 | 151 | 0.0 | 0.0 | 0.00 | 0.06 | 0.06 | 99 | 1013.2 |
| 20260903000714 | 80 | 143 | 0.0 | 0.0 | 0.00 | 0.06 | 0.06 | 99 | 1013.3 |
| 20260903000213 | 80 | 150 | 0.0 | 0.0 | 0.07 | 0.06 | 0.06 | 99 | 1013.2 |
| 20260902235712 | 80 | 149 | 0.0 | 0.0 | 0.07 | 0.06 | 0.06 | 99 | 1013.0 |
| 20260902235208 | 80 | 149 | 0.0 | 0.0 | 0.00 | 0.05 | 0.05 | 99 | 1013.1 |
| 20260902234707 | 80 | 152 | 0.0 | 0.0 | 0.07 | 0.05 | 0.05 | 99 | 1013.1 |
| 20260902234206 | 80 | 149 | 0.0 | 0.0 | 0.07 | 0.05 | 0.05 | 98 | 1013.3 |
| 20260902233701 | 80 | 152 | 0.0 | 0.0 | 0.00 | 0.04 | 0.04 | 98 | 1013.2 |
| 20260902233200 | 80 | 156 | 0.0 | 0.0 | 0.00 | 0.04 | 0.04 | 98 | 1013.2 |
| 20260902232659 | 80 | 150 | 0.0 | 0.0 | 0.00 | 0.04 | 0.04 | 98 | 1013.3 |
| 20260902232159 | 80 | 151 | 0.0 | 0.0 | 0.00 | 0.04 | 0.04 | 98 | 1013.3 |
| 20260902231653 | 80 | 146 | 0.0 | 0.0 | 0.00 | 0.04 | 0.04 | 98 | 1013.0 |
| 20260902231148 | 81 | 135 | 0.0 | 0.0 | 0.00 | 0.04 | 0.04 | 97 | 1013.2 |
| 20260902230643 | 81 | 152 | 0.0 | 0.0 | 0.00 | 0.04 | 0.04 | 97 | 1013.3 |
| 20260902230142 | 81 | 160 | 0.0 | 0.0 | 0.00 | 0.04 | 0.04 | 97 | 1013.0 |
| 20260902225637 | 81 | 144 | 0.0 | 0.0 | 0.00 | 0.04 | 0.04 | 96 | 1013.5 |
| 20260902225136 | 81 | 150 | 0.0 | 0.0 | 0.00 | 0.04 | 0.04 | 96 | 1013.2 |
| 20260902224635 | 81 | 151 | 0.0 | 0.0 | 0.00 | 0.04 | 0.04 | 97 | 1013.3 |
| 20260902224131 | 81 | 157 | 0.0 | 0.0 | 0.00 | 0.04 | 0.04 | 97 | 1013.4 |
| 20260902223627 | 82 | 156 | 0.0 | 0.0 | 0.00 | 0.04 | 0.04 | 97 | 1013.5 |
| 20260902223126 | 82 | 158 | 0.0 | 0.0 | 0.00 | 0.04 | 0.04 | 97 | 1013.3 |
| 20260902222625 | 82 | 154 | 0.0 | 0.0 | 0.00 | 0.04 | 0.04 | 97 | 1013.1 |
| 20260902222124 | 82 | 173 | 0.0 | 0.0 | 0.00 | 0.04 | 0.04 | 97 | 1012.9 |
| 20260902221619 | 82 | 182 | 0.0 | 0.0 | 0.00 | 0.04 | 0.04 | 97 | 1012.6 |
| 20260902221114 | 82 | 144 | 0.0 | 0.0 | 0.00 | 0.04 | 0.04 | 97 | 1012.6 |
| 20260902220610 | 82 | 145 | 0.0 | 0.0 | 0.00 | 0.04 | 0.04 | 97 | 1012.6 |